Wind_Speed
6 6 6 5 5 5 4 3 4 5 6 6 7 7 8 8 10 12 11 11 12 11 10 10 10 10 10 11 11 10 10 10 11 11 11 10 9 9 9 9 8 8 9 9
7 6 5 5 5 4 4 2 2 3 3 5 7 7 7 8 10 11 11 11 11 10 9 9 9 9 10 10 10 10 10 10 10 11 11 10 9 9 9 9 10 10 9 9
7 5 4 4 4 4 3 1 1 1 2 4 5 6 7 7 9 9 9 10 10 9 8 9 8 8 9 9 9 10 9 9 10 10 10 10 10 10 10 10 10 10 10 10
6 5 4 4 3 4 3 2 2 2 2 2 2 5 6 7 7 8 8 9 9 9 9 9 8 8 9 9 9 10 10 10 10 10 10 11 11 11 11 11 11 11 10 10
6 6 5 4 3 3 4 3 4 4 2 2 3 3 5 6 7 8 9 10 10 9 8 9 9 8 9 10 10 10 11 10 10 10 10 11 11 11 12 11 12 12 11 11
7 7 7 6 4 4 4 5 4 4 3 3 3 4 5 7 8 9 10 10 9 9 9 9 9 9 10 10 11 11 11 11 10 10 11 12 12 12 13 13 13 13 13 12
9 9 8 7 6 5 6 5 5 5 4 4 4 5 6 7 8 9 11 11 10 11 10 9 10 10 11 11 11 11 11 12 12 12 12 13 13 13 13 14 14 13 14 14
11 10 9 8 7 7 6 6 6 7 6 5 6 7 8 8 9 10 10 11 11 10 10 10 10 11 12 12 11 12 12 13 13 13 14 13 13 13 14 15 15 15 14 14
12 11 11 10 10 9 8 7 7 9 9 8 9 9 9 9 9 9 10 10 11 12 12 11 10 11 12 12 12 13 13 13 13 14 14 14 14 15 16 16 16 16 16 15
13 13 12 11 11 11 11 10 10 10 11 11 11 11 11 10 9 9 10 12 13 14 12 11 11 12 13 13 14 14 14 13 14 15 15 15 15 16 16 16 17 17 17 17
16 16 15 15 15 13 13 12 12 13 13 14 14 13 12 11 11 11 12 13 14 15 12 12 12 13 13 13 14 14 15 15 15 16 16 16 17 17 17 17 18 18 18 17
17 18 17 17 16 15 16 15 16 16 16 16 16 15 13 13 12 13 13 13 14 14 14 13 13 13 14 14 14 15 15 16 17 17 17 18 19 19 19 19 19 19 19 18
19 20 19 18 18 18 17 17 17 18 18 18 18 17 16 15 14 15 15 16 16 15 14 14 14 15 15 15 15 16 16 17 19 19 19 19 20 20 20 20 20 20 20 19
20 21 21 20 19 20 20 18 18 18 19 19 18 18 17 17 17 17 17 17 16 16 15 15 16 17 17 17 17 17 18 19 19 20 19 20 20 21 20 21 21 21 20 20
23 23 22 20 20 21 21 20 20 20 20 20 19 18 17 17 17 18 19 19 18 18 18 18 18 18 19 19 19 19 20 20 20 21 21 22 21 21 21 22 22 22 22 22
24 24 22 22 22 22 23 21 20 21 20 20 20 19 18 19 20 21 21 20 20 20 20 20 20 21 22 21 21 21 21 22 22 22 22 22 23 22 22 23 23 23 23 23
25 25 25 25 24 24 24 22 21 21 21 21 21 21 21 21 22 23 22 20 21 21 22 22 22 23 23 23 23 23 22 22 23 23 23 23 23 24 24 24 24 24 25 25
26 26 26 26 25 26 23 22 22 23 23 23 23 23 22 23 23 23 22 22 23 23 24 24 24 24 24 23 22 22 23 24 24 24 24 24 25 26 26 26 26 25 26 26
28 27 28 29 29 27 25 23 22 24 25 25 25 24 24 24 24 23 23 23 25 25 26 26 26 25 24 23 24 25 25 25 25 26 26 27 27 28 28 27 27 27 27 27
29 29 29 29 30 29 26 24 24 25 27 27 27 26 25 24 24 24 24 25 25 26 26 26 26 25 25 25 26 25 25 25 26 27 27 28 28 28 28 27 28 28 28 28
30 30 29 30 30 29 26 26 27 27 27 27 27 26 25 24 24 25 25 25 26 27 27 27 26 25 25 26 27 26 26 26 27 28 29 29 29 29 29 29 29 29 29 29
30 30 30 30 30 28 27 27 28 28 29 28 27 27 26 25 26 26 27 27 28 28 28 28 28 27 27 28 28 27 27 27 28 29 30 30 30 30 30 30 29 29 29 29
30 29 29 29 28 28 28 28 28 28 29 29 28 27 27 26 25 26 28 28 29 29 29 29 29 29 30 30 29 29 29 29 29 30 30 31 31 31 31 31 31 31 30 30
31 30 28 28 28 28 29 29 28 28 28 29 28 27 27 27 27 28 29 29 30 30 29 30 30 30 30 31 31 30 30 30 30 30 31 32 32 32 32 32 32 32 32 32
31 31 30 29 29 29 29 29 28 28 28 30 30 29 28 28 28 28 29 29 29 29 30 30 30 30 31 31 32 31 31 31 31 31 32 32 32 32 32 32 32 32 32 32
30 30 30 30 30 30 30 29 28 28 28 28 29 29 28 28 27 28 28 29 29 29 30 30 31 31 31 31 32 32 32 32 32 32 31 32 32 33 32 31 31 30 31 32
Wind_Direction
166 161 152 137 123 121 117 106 89 60 32 18 24 26 23 23 19 18 21 24 25 27 31 29 25 26 31 32 31 31 31 31 30 28 27 26 26 26 25 23 19 16 15 14
185 178 176 172 160 143 131 121 85 78 31 17 21 18 23 22 15 12 13 15 16 19 24 23 19 19 24 27 23 25 25 24 25 25 24 23 19 14 11 9 9 7 3 2
204 198 196 189 178 181 167 177 264 353 21 20 13 6 13 19 13 8 7 12 9 12 15 11 14 14 15 18 14 13 16 15 14 15 16 14 8 5 0 358 359 357 355 352
190 194 201 198 194 206 214 244 288 282 298 338 2 4 12 11 9 6 357 1 357 358 0 360 360 6 5 3 1 357 359 2 3 4 6 5 3 360 357 356 354 350 347 345
196 192 200 211 210 235 252 270 283 283 270 306 333 345 2 357 2 358 356 355 349 348 355 356 355 354 352 350 349 347 347 349 350 351 353 354 354 353 350 349 347 346 346 342
201 194 198 212 228 247 261 271 265 283 266 278 325 335 340 340 346 347 347 351 348 350 349 345 344 343 341 340 342 341 340 341 340 339 341 342 342 342 341 340 338 337 336 334
197 193 196 210 230 241 254 264 260 259 260 268 293 310 324 328 333 335 336 339 338 339 338 334 329 331 329 332 334 332 332 333 332 333 333 332 331 332 332 332 331 328 328 328
206 197 202 209 227 233 245 255 253 259 265 273 275 293 308 307 316 322 327 328 329 331 330 328 323 319 321 324 327 327 326 326 326 327 328 327 327 327 327 326 326 324 323 322
220 211 205 209 222 234 242 246 249 266 268 277 278 285 294 294 307 319 320 320 322 322 323 326 325 320 320 322 325 326 324 324 324 323 323 324 327 329 327 325 322 322 321 318
227 227 219 217 225 236 243 250 253 261 276 285 284 288 292 292 299 314 312 312 316 318 316 318 322 324 323 322 321 322 320 320 321 321 321 319 322 325 326 324 322 322 320 319
230 231 229 229 229 236 244 246 251 261 266 275 286 289 290 292 298 308 313 312 314 318 315 316 319 321 323 325 322 321 318 315 317 318 316 315 318 320 320 319 317 316 316 314
239 240 236 234 237 241 242 244 252 257 262 270 278 284 291 296 295 302 306 311 312 311 313 315 319 320 320 319 319 319 315 313 313 314 313 313 314 315 316 316 315 314 312 310
241 243 243 237 237 239 243 245 250 255 262 268 275 282 288 289 289 295 299 303 306 305 308 313 314 315 316 315 314 314 311 310 311 313 310 312 314 312 311 311 313 314 311 310
243 246 247 242 239 239 243 247 251 255 261 267 273 280 285 286 288 292 296 300 302 304 307 309 309 309 310 310 310 310 310 311 311 311 308 310 311 310 309 310 311 312 310 308
245 249 248 247 244 242 245 248 252 256 261 266 270 274 279 282 284 289 293 295 296 298 303 306 308 307 307 307 307 306 307 309 309 308 307 307 307 307 308 308 308 309 309 308
246 251 250 250 248 246 248 251 252 254 260 266 270 272 278 282 282 286 290 291 292 296 300 302 304 304 304 304 302 304 304 305 305 305 307 308 308 308 307 308 307 308 308 308
245 250 251 253 251 249 249 251 251 251 253 262 270 274 275 280 283 287 288 289 290 293 294 296 298 299 300 300 300 299 301 303 304 305 306 306 306 306 306 306 306 305 305 306
246 249 252 253 253 250 252 250 251 253 256 262 268 269 274 278 281 283 286 290 291 290 293 294 294 295 296 298 298 299 301 302 302 304 305 305 304 304 305 305 304 303 303 303
247 250 251 251 253 253 251 250 254 257 257 262 267 272 277 280 280 281 286 289 290 291 293 293 293 293 294 296 297 299 299 300 301 302 303 302 302 302 302 302 302 302 302 302
248 251 250 250 252 254 255 256 256 258 258 263 268 274 277 279 281 283 285 286 286 288 290 290 291 292 294 295 297 297 296 298 299 300 300 300 300 300 300 300 300 301 301 301
249 251 251 250 252 254 257 260 260 261 263 267 271 274 277 278 280 283 283 283 285 286 288 288 290 293 293 293 294 295 295 297 298 298 298 299 299 299 298 297 298 299 299 300
249 249 249 249 251 253 257 258 261 264 266 268 271 273 276 278 280 282 283 284 285 285 286 287 288 291 292 293 294 294 294 295 297 297 297 297 298 298 297 297 297 297 298 299
249 249 248 248 251 253 255 256 260 263 265 268 269 271 274 277 279 281 283 285 285 285 286 287 288 289 292 293 294 294 294 295 295 295 295 295 296 296 297 298 298 298 297 297
246 247 247 249 250 254 254 255 257 259 263 267 270 272 275 277 280 283 284 284 285 286 287 287 288 289 290 291 291 292 293 293 293 293 294 295 295 296 296 297 297 297 297 297
246 244 247 249 250 251 252 255 259 259 264 268 271 274 275 278 280 283 283 284 285 286 286 287 288 288 289 290 290 291 292 292 293 296 295 294 294 296 296 297 297 296 296 297
246 246 247 251 252 251 252 255 260 261 264 268 272 275 277 278 279 281 284 286 285 284 285 286 288 289 290 289 289 290 291 292 293 294 295 295 294 295 295 296 297 297 298 299
Height
5929 5931 5931 5932 5932 5933 5932 5932 5933 5933 5932 5932 5931 5930 5929 5928 5927 5926 5925 5924 5923 5922 5920 5918 5917 5916 5914 5912 5910 5909 5907 5905 5904 5902 5900 5898 5897 5895 5894 5893 5891 5890 5888 5887
5930 5930 5931 5931 5932 5932 5932 5932 5933 5933 5932 5932 5931 5931 5929 5928 5927 5926 5925 5924 5923 5922 5920 5919 5918 5916 5914 5913 5911 5909 5908 5906 5904 5902 5901 5899 5898 5896 5894 5893 5891 5889 5888 5886
5928 5930 5930 5931 5931 5931 5931 5932 5933 5933 5932 5932 5931 5931 5930 5929 5927 5926 5925 5924 5923 5922 5920 5919 5918 5916 5915 5913 5911 5909 5908 5906 5904 5903 5901 5899 5898 5896 5894 5892 5890 5889 5887 5886
5927 5928 5929 5929 5931 5931 5931 5931 5932 5932 5932 5931 5932 5931 5930 5928 5928 5926 5925 5923 5922 5921 5920 5918 5917 5916 5915 5913 5911 5909 5907 5906 5904 5902 5901 5899 5897 5895 5893 5891 5889 5888 5886 5884
5925 5926 5927 5928 5930 5930 5931 5931 5931 5931 5930 5931 5931 5930 5930 5928 5927 5926 5924 5923 5921 5920 5919 5917 5916 5915 5914 5912 5910 5909 5907 5905 5903 5902 5900 5898 5896 5894 5892 5890 5888 5886 5885 5883
5924 5924 5926 5927 5928 5929 5929 5930 5929 5929 5929 5930 5930 5929 5929 5927 5925 5924 5923 5921 5920 5919 5917 5916 5915 5914 5913 5911 5909 5908 5906 5904 5902 5901 5899 5897 5895 5893 5891 5889 5887 5884 5883 5881
5921 5923 5924 5926 5927 5927 5928 5929 5928 5928 5928 5928 5928 5927 5927 5926 5924 5923 5922 5920 5919 5918 5916 5915 5913 5912 5911 5909 5908 5906 5905 5903 5901 5899 5897 5895 5893 5891 5889 5887 5885 5883 5881 5879
5919 5922 5923 5924 5925 5926 5926 5927 5927 5927 5926 5927 5926 5925 5926 5924 5922 5921 5920 5919 5917 5916 5915 5913 5911 5910 5909 5907 5906 5904 5902 5901 5899 5897 5895 5893 5890 5888 5886 5884 5882 5880 5878 5876
5917 5920 5921 5922 5923 5924 5924 5925 5925 5925 5924 5924 5924 5923 5923 5921 5920 5919 5918 5917 5916 5914 5913 5911 5910 5909 5907 5905 5904 5902 5900 5898 5896 5894 5892 5890 5888 5886 5883 5881 5879 5877 5875 5873
5915 5917 5919 5920 5921 5921 5922 5923 5923 5923 5922 5921 5921 5920 5920 5918 5918 5917 5916 5915 5913 5912 5910 5908 5908 5906 5905 5903 5901 5899 5897 5895 5893 5891 5889 5887 5885 5883 5880 5878 5876 5873 5871 5869
5911 5914 5916 5917 5917 5918 5919 5919 5919 5919 5919 5919 5918 5920 5918 5917 5916 5914 5913 5912 5910 5909 5907 5906 5905 5904 5902 5900 5898 5896 5894 5892 5890 5888 5886 5884 5882 5880 5877 5875 5872 5870 5867 5865
5908 5910 5911 5913 5914 5915 5915 5915 5915 5916 5916 5915 5915 5917 5915 5914 5913 5911 5910 5909 5907 5906 5905 5904 5902 5900 5899 5897 5895 5893 5891 5889 5887 5884 5882 5880 5878 5876 5873 5870 5868 5865 5863 5861
5904 5905 5907 5908 5911 5911 5910 5911 5911 5911 5912 5911 5911 5913 5910 5909 5909 5908 5907 5906 5904 5903 5901 5900 5899 5897 5896 5894 5892 5890 5888 5885 5883 5880 5877 5875 5873 5871 5869 5866 5863 5861 5858 5856
5899 5900 5902 5904 5905 5906 5906 5907 5907 5907 5907 5907 5907 5907 5906 5906 5905 5904 5903 5902 5900 5899 5898 5897 5896 5894 5892 5890 5888 5886 5884 5881 5878 5876 5873 5871 5869 5866 5863 5861 5858 5856 5853 5851
5894 5895 5897 5898 5900 5900 5901 5902 5903 5902 5902 5902 5903 5902 5902 5902 5901 5900 5899 5898 5897 5895 5894 5893 5892 5890 5888 5886 5883 5881 5879 5876 5874 5871 5869 5866 5864 5861 5858 5856 5853 5851 5848 5845
5888 5890 5891 5893 5894 5895 5895 5897 5898 5898 5897 5897 5897 5898 5898 5897 5896 5896 5895 5894 5893 5891 5890 5888 5887 5885 5883 5881 5878 5876 5874 5871 5869 5866 5863 5861 5858 5856 5853 5851 5848 5845 5842 5840
5882 5883 5885 5886 5887 5888 5889 5891 5892 5892 5892 5893 5893 5893 5892 5892 5891 5890 5890 5889 5888 5887 5885 5884 5882 5880 5878 5875 5873 5870 5868 5866 5863 5861 5858 5856 5853 5850 5847 5845 5842 5839 5836 5833
5875 5876 5877 5879 5881 5882 5886 5886 5886 5886 5886 5887 5887 5887 5886 5886 5886 5885 5885 5884 5883 5881 5880 5878 5876 5874 5872 5870 5867 5864 5862 5860 5857 5855 5852 5850 5847 5844 5841 5838 5835 5832 5829 5827
5869 5870 5870 5872 5873 5874 5878 5880 5880 5880 5880 5881 5881 5881 5880 5880 5880 5880 5879 5878 5877 5875 5874 5872 5870 5868 5866 5863 5861 5859 5856 5854 5851 5849 5846 5843 5840 5837 5834 5831 5828 5825 5822 5819
5862 5863 5864 5865 5865 5867 5871 5872 5873 5874 5874 5874 5874 5875 5875 5874 5874 5874 5873 5872 5871 5869 5867 5865 5863 5861 5859 5857 5855 5852 5850 5847 5845 5842 5839 5836 5833 5830 5827 5823 5820 5817 5814 5811
5854 5855 5856 5857 5858 5860 5863 5864 5866 5867 5868 5867 5868 5868 5868 5868 5868 5867 5866 5865 5863 5862 5860 5858 5856 5854 5853 5850 5848 5845 5843 5840 5838 5835 5832 5829 5825 5822 5819 5815 5812 5809 5806 5803
5846 5847 5848 5849 5851 5855 5856 5857 5858 5859 5860 5860 5860 5861 5861 5861 5860 5860 5858 5857 5855 5854 5852 5850 5848 5847 5845 5843 5840 5838 5835 5833 5830 5827 5824 5820 5817 5814 5810 5807 5804 5800 5797 5794
5837 5840 5841 5843 5846 5848 5848 5850 5851 5851 5852 5852 5853 5853 5853 5853 5852 5851 5850 5849 5847 5845 5844 5842 5841 5839 5837 5835 5832 5830 5827 5825 5822 5819 5816 5812 5809 5805 5802 5798 5795 5792 5789 5786
5830 5831 5833 5835 5837 5839 5841 5842 5843 5843 5844 5845 5844 5845 5845 5844 5844 5843 5842 5840 5839 5837 5835 5833 5832 5830 5828 5826 5823 5821 5818 5815 5812 5809 5807 5803 5800 5796 5793 5790 5786 5783 5780 5777
5822 5824 5825 5827 5830 5831 5833 5834 5836 5836 5837 5837 5837 5837 5837 5836 5835 5835 5833 5832 5830 5828 5826 5824 5823 5821 5819 5816 5814 5811 5809 5806 5803 5800 5797 5793 5790 5787 5784 5781 5777 5774 5771 5767
5815 5816 5818 5820 5822 5823 5825 5827 5828 5828 5829 5829 5829 5829 5828 5828 5827 5826 5825 5823 5821 5819 5818 5816 5814 5812 5810 5807 5805 5802 5799 5796 5794 5791 5787 5784 5780 5777 5774 5771 5768 5764 5761 5758